AEE4PA LTFM-LGAV

Flight info

Callsign AEE4PA
Flight time 0h 56m
Altitude 34000
Route IVGUS UY226 BIG UN604 OGSIL
Aircraft A320/M-SDE3FGHIRWY/LB1

Departure

Time 2026-05-07 18:05
Airport İstanbul Airport (LTFM)

Arrival

Time 2026-05-07 19:01
Airport Athens Eleftherios Venizelos International Airport (LGAV)
Time Latitude Longitude Altitude Speed Heading
2026-05-07 17:31 41.26594 28.73761 335 ft 0 kts 269°
2026-05-07 17:52 41.26595 28.73769 334 ft 4 kts 270°
2026-05-07 17:52 41.26594 28.73805 330 ft 4 kts 275°
2026-05-07 17:52 41.26590 28.73840 330 ft 4 kts 285°
2026-05-07 17:53 41.26580 28.73872 331 ft 4 kts 322°
2026-05-07 17:53 41.26567 28.73880 330 ft 1 kts 358°
2026-05-07 17:53 41.26565 28.73880 330 ft 0 kts 358°
2026-05-07 17:56 41.26576 28.73879 332 ft 5 kts 358°
2026-05-07 17:56 41.26637 28.73877 332 ft 13 kts 358°
2026-05-07 17:56 41.26737 28.73874 330 ft 17 kts 359°
2026-05-07 17:56 41.26860 28.73861 330 ft 16 kts 329°
2026-05-07 17:57 41.26875 28.73731 331 ft 16 kts 269°
2026-05-07 17:57 41.26873 28.73631 331 ft 17 kts 268°
2026-05-07 17:57 41.26869 28.73392 332 ft 21 kts 269°
2026-05-07 17:57 41.26868 28.73236 334 ft 18 kts 270°
2026-05-07 17:58 41.26865 28.73059 333 ft 20 kts 268°
2026-05-07 17:58 41.26810 28.72995 331 ft 4 kts 170°
2026-05-07 17:58 41.26773 28.72993 329 ft 7 kts 185°
2026-05-07 17:58 41.26723 28.72972 334 ft 9 kts 229°
2026-05-07 17:59 41.26718 28.72949 331 ft 0 kts 259°
2026-05-07 17:59 41.26718 28.72942 334 ft 0 kts 268°
2026-05-07 18:02 41.26716 28.72832 333 ft 14 kts 268°
2026-05-07 18:02 41.26713 28.72685 332 ft 18 kts 269°
2026-05-07 18:02 41.26726 28.72527 332 ft 13 kts 314°
2026-05-07 18:03 41.26772 28.72513 334 ft 1 kts 359°
2026-05-07 18:03 41.26789 28.72513 330 ft 4 kts 359°
2026-05-07 18:03 41.26810 28.72513 333 ft 1 kts 359°
2026-05-07 18:03 41.26813 28.72513 334 ft 0 kts 359°
2026-05-07 18:04 41.26814 28.72513 334 ft 0 kts 359°
2026-05-07 18:04 41.26816 28.72513 331 ft 1 kts 359°
2026-05-07 18:04 41.26924 28.72510 332 ft 47 kts 359°
2026-05-07 18:04 41.27511 28.72499 334 ft 115 kts 359°
2026-05-07 18:05 41.28474 28.72466 366 ft 161 kts 356°
2026-05-07 18:05 41.29610 28.72427 995 ft 163 kts 358°
2026-05-07 18:05 41.30749 28.72396 1680 ft 166 kts 357°
2026-05-07 18:05 41.31929 28.72404 2288 ft 174 kts 358°
2026-05-07 18:06 41.33198 28.72445 2692 ft 192 kts 357°
2026-05-07 18:06 41.34588 28.72461 3113 ft 208 kts 356°
2026-05-07 18:06 41.36117 28.72440 3495 ft 233 kts 355°
2026-05-07 18:06 41.37744 28.71922 3924 ft 252 kts 324°
2026-05-07 18:07 41.38826 28.70112 4737 ft 258 kts 289°
2026-05-07 18:07 41.39043 28.68546 5302 ft 263 kts 272°
2026-05-07 18:07 41.38871 28.66097 6231 ft 269 kts 259°
2026-05-07 18:07 41.38187 28.63767 7122 ft 276 kts 234°
2026-05-07 18:08 41.36785 28.62000 8061 ft 279 kts 220°
2026-05-07 18:08 41.35276 28.60329 8954 ft 285 kts 222°
2026-05-07 18:08 41.33768 28.58583 9868 ft 288 kts 223°
2026-05-07 18:08 41.32260 28.56821 10750 ft 289 kts 223°
2026-05-07 18:09 41.30711 28.55005 11272 ft 306 kts 223°
2026-05-07 18:09 41.29056 28.53061 11618 ft 326 kts 223°
2026-05-07 18:09 41.27334 28.51044 12287 ft 334 kts 223°
2026-05-07 18:09 41.25597 28.49018 13052 ft 338 kts 222°
2026-05-07 18:10 41.23816 28.46949 13826 ft 342 kts 222°
2026-05-07 18:10 41.22014 28.44859 14512 ft 346 kts 222°
2026-05-07 18:10 41.20192 28.42747 15174 ft 349 kts 223°
2026-05-07 18:10 41.18354 28.40615 15832 ft 353 kts 223°
2026-05-07 18:11 41.16496 28.38464 16482 ft 356 kts 223°
2026-05-07 18:11 41.14617 28.36294 17148 ft 360 kts 223°
2026-05-07 18:11 41.12718 28.34104 17819 ft 363 kts 223°
2026-05-07 18:11 41.10795 28.31887 18470 ft 367 kts 223°
2026-05-07 18:12 41.08859 28.29654 19048 ft 371 kts 223°
2026-05-07 18:12 41.06907 28.27405 19638 ft 374 kts 223°
2026-05-07 18:12 41.04935 28.25133 20222 ft 377 kts 223°
2026-05-07 18:12 41.02944 28.22838 20810 ft 381 kts 223°
2026-05-07 18:13 41.00939 28.20527 21369 ft 384 kts 223°
2026-05-07 18:13 40.98918 28.18199 21918 ft 387 kts 223°
2026-05-07 18:13 40.96902 28.15881 22452 ft 390 kts 223°
2026-05-07 18:13 40.94847 28.13523 22991 ft 393 kts 223°
2026-05-07 18:14 40.92773 28.11150 23536 ft 396 kts 223°
2026-05-07 18:14 40.90683 28.08763 24009 ft 398 kts 223°
2026-05-07 18:14 40.88584 28.06365 24462 ft 401 kts 223°
2026-05-07 18:14 40.86465 28.03939 24912 ft 403 kts 223°
2026-05-07 18:15 40.84343 28.01509 25369 ft 406 kts 224°
2026-05-07 18:15 40.82204 27.99061 25806 ft 408 kts 224°
2026-05-07 18:15 40.80048 27.96605 26254 ft 411 kts 223°
2026-05-07 18:15 40.77877 27.94135 26691 ft 413 kts 224°
2026-05-07 18:16 40.75692 27.91647 27124 ft 416 kts 224°
2026-05-07 18:16 40.73495 27.89148 27545 ft 418 kts 224°
2026-05-07 18:16 40.71282 27.86635 27964 ft 421 kts 224°
2026-05-07 18:16 40.69055 27.84108 28383 ft 424 kts 224°
2026-05-07 18:17 40.66843 27.81600 28805 ft 426 kts 224°
2026-05-07 18:17 40.64587 27.79044 29207 ft 429 kts 224°
2026-05-07 18:17 40.62315 27.76471 29610 ft 432 kts 224°
2026-05-07 18:17 40.60029 27.73883 30032 ft 435 kts 224°
2026-05-07 18:18 40.57726 27.71280 30412 ft 438 kts 223°
2026-05-07 18:18 40.55410 27.68669 30786 ft 440 kts 223°
2026-05-07 18:18 40.53075 27.66045 31159 ft 441 kts 223°
2026-05-07 18:18 40.50737 27.63417 31528 ft 443 kts 223°
2026-05-07 18:19 40.48391 27.60777 31911 ft 444 kts 223°
2026-05-07 18:19 40.46054 27.58148 32443 ft 442 kts 223°
2026-05-07 18:19 40.43721 27.55526 32974 ft 440 kts 223°
2026-05-07 18:19 40.41397 27.52916 33492 ft 439 kts 223°
2026-05-07 18:20 40.39079 27.50314 33967 ft 439 kts 223°
2026-05-07 18:20 40.36755 27.47712 34087 ft 436 kts 223°
2026-05-07 18:20 40.34501 27.45199 34115 ft 427 kts 223°
2026-05-07 18:21 40.30012 27.40188 34114 ft 423 kts 223°
2026-05-07 18:21 40.25537 27.35192 34114 ft 422 kts 223°
2026-05-07 18:22 40.21063 27.30211 34118 ft 422 kts 223°
2026-05-07 18:22 40.16441 27.25476 34120 ft 423 kts 218°
2026-05-07 18:23 40.11621 27.21037 34125 ft 423 kts 218°
2026-05-07 18:23 40.06809 27.16611 34124 ft 423 kts 218°
2026-05-07 18:24 40.02004 27.12206 34130 ft 422 kts 218°
2026-05-07 18:24 39.97201 27.07804 34135 ft 422 kts 218°
2026-05-07 18:25 39.92431 27.03448 34137 ft 421 kts 218°
2026-05-07 18:25 39.87638 26.99069 34140 ft 420 kts 218°
2026-05-07 18:26 39.82848 26.94707 34146 ft 420 kts 218°
2026-05-07 18:26 39.78061 26.90361 34146 ft 419 kts 218°
2026-05-07 18:27 39.73280 26.86025 34148 ft 419 kts 218°
2026-05-07 18:27 39.68508 26.81694 34148 ft 418 kts 218°
2026-05-07 18:28 39.63743 26.77375 34149 ft 418 kts 218°
2026-05-07 18:28 39.59009 26.73098 34135 ft 417 kts 218°
2026-05-07 18:29 39.54247 26.68812 34143 ft 417 kts 219°
2026-05-07 18:29 39.49489 26.64530 34139 ft 416 kts 219°
2026-05-07 18:30 39.44723 26.60258 34138 ft 416 kts 219°
2026-05-07 18:30 39.39974 26.55987 34137 ft 416 kts 219°
2026-05-07 18:31 39.35222 26.51730 34137 ft 415 kts 220°
2026-05-07 18:31 39.30291 26.47784 34132 ft 418 kts 215°
2026-05-07 18:32 39.25247 26.44055 34131 ft 416 kts 219°
2026-05-07 18:32 39.21055 26.39211 34128 ft 402 kts 237°
2026-05-07 18:33 39.17571 26.33572 34126 ft 402 kts 237°
2026-05-07 18:33 39.14052 26.27949 34124 ft 403 kts 237°
2026-05-07 18:34 39.10534 26.22339 34123 ft 403 kts 238°
2026-05-07 18:34 39.07012 26.16728 34125 ft 403 kts 238°
2026-05-07 18:35 39.03490 26.11116 34121 ft 403 kts 238°
2026-05-07 18:35 38.99967 26.05505 34121 ft 403 kts 239°
2026-05-07 18:36 38.96441 25.99904 34122 ft 403 kts 240°
2026-05-07 18:36 38.92928 25.94344 34122 ft 403 kts 240°
2026-05-07 18:37 38.89394 25.88753 34127 ft 403 kts 241°
2026-05-07 18:37 38.85867 25.83173 33971 ft 400 kts 241°
2026-05-07 18:37 38.84121 25.80426 33693 ft 395 kts 241°
2026-05-07 18:38 38.82391 25.77701 33428 ft 393 kts 241°
2026-05-07 18:38 38.80669 25.74993 33154 ft 391 kts 241°
2026-05-07 18:38 38.78962 25.72314 32817 ft 385 kts 241°
2026-05-07 18:38 38.77275 25.69665 32395 ft 382 kts 240°
2026-05-07 18:39 38.75604 25.67037 31982 ft 379 kts 240°
2026-05-07 18:39 38.73945 25.64428 31562 ft 376 kts 240°
2026-05-07 18:39 38.72294 25.61831 31155 ft 374 kts 239°
2026-05-07 18:39 38.70682 25.59296 30753 ft 372 kts 239°
2026-05-07 18:40 38.69050 25.56737 30377 ft 370 kts 238°
2026-05-07 18:40 38.67424 25.54194 29952 ft 368 kts 238°
2026-05-07 18:40 38.65806 25.51669 29582 ft 365 kts 238°
2026-05-07 18:40 38.64202 25.49168 29207 ft 361 kts 238°
2026-05-07 18:41 38.62615 25.46695 28845 ft 358 kts 238°
2026-05-07 18:41 38.61044 25.44249 28486 ft 354 kts 237°
2026-05-07 18:41 38.59489 25.41830 28131 ft 350 kts 237°
2026-05-07 18:41 38.57954 25.39443 27787 ft 347 kts 237°
2026-05-07 18:42 38.56430 25.37075 27422 ft 343 kts 237°
2026-05-07 18:42 38.54921 25.34724 27070 ft 340 kts 237°
2026-05-07 18:42 38.53431 25.32400 26713 ft 337 kts 237°
2026-05-07 18:42 38.51954 25.30096 26344 ft 334 kts 237°
2026-05-07 18:43 38.50503 25.27838 25992 ft 332 kts 236°
2026-05-07 18:43 38.49041 25.25570 25627 ft 330 kts 236°
2026-05-07 18:43 38.47586 25.23313 25262 ft 328 kts 236°
2026-05-07 18:43 38.46138 25.21066 24886 ft 327 kts 236°
2026-05-07 18:44 38.44695 25.18830 24507 ft 326 kts 236°
2026-05-07 18:44 38.43252 25.16601 24115 ft 325 kts 235°
2026-05-07 18:44 38.41809 25.14375 23729 ft 325 kts 235°
2026-05-07 18:44 38.40369 25.12152 23242 ft 325 kts 235°
2026-05-07 18:45 38.38934 25.09936 22822 ft 323 kts 235°
2026-05-07 18:45 38.37507 25.07731 22400 ft 322 kts 235°
2026-05-07 18:45 38.36086 25.05535 21961 ft 320 kts 235°
2026-05-07 18:45 38.34671 25.03354 21558 ft 320 kts 234°
2026-05-07 18:46 38.33255 25.01175 21139 ft 319 kts 234°
2026-05-07 18:46 38.31841 24.98999 20721 ft 319 kts 234°
2026-05-07 18:46 38.30445 24.96854 20313 ft 319 kts 234°
2026-05-07 18:46 38.29031 24.94680 19877 ft 319 kts 234°
2026-05-07 18:47 38.27616 24.92503 19457 ft 319 kts 234°
2026-05-07 18:47 38.26196 24.90323 19032 ft 320 kts 234°
2026-05-07 18:47 38.24772 24.88140 18612 ft 321 kts 234°
2026-05-07 18:47 38.23343 24.85951 18153 ft 322 kts 234°
2026-05-07 18:48 38.21914 24.83761 17708 ft 321 kts 233°
2026-05-07 18:48 38.20488 24.81580 17283 ft 320 kts 233°
2026-05-07 18:48 38.19069 24.79411 16859 ft 319 kts 233°
2026-05-07 18:48 38.17646 24.77238 16440 ft 319 kts 233°
2026-05-07 18:49 38.16230 24.75075 16015 ft 318 kts 233°
2026-05-07 18:49 38.14818 24.72920 15596 ft 318 kts 233°
2026-05-07 18:49 38.13403 24.70759 15211 ft 316 kts 232°
2026-05-07 18:49 38.12016 24.68643 15117 ft 307 kts 232°
2026-05-07 18:50 38.10648 24.66559 15140 ft 307 kts 232°
2026-05-07 18:50 38.09280 24.64477 15137 ft 307 kts 232°
2026-05-07 18:50 38.07911 24.62395 15141 ft 307 kts 232°
2026-05-07 18:50 38.06543 24.60315 15144 ft 307 kts 232°
2026-05-07 18:51 38.05173 24.58235 15139 ft 307 kts 232°
2026-05-07 18:51 38.03803 24.56158 15138 ft 307 kts 232°
2026-05-07 18:51 38.02432 24.54079 15140 ft 307 kts 232°
2026-05-07 18:51 38.01194 24.51890 15142 ft 304 kts 246°
2026-05-07 18:52 38.00616 24.49343 15105 ft 301 kts 265°
2026-05-07 18:52 38.00759 24.46712 14294 ft 304 kts 287°
2026-05-07 18:52 38.01677 24.44271 13280 ft 311 kts 300°
2026-05-07 18:52 38.02753 24.41917 12422 ft 312 kts 299°
2026-05-07 18:53 38.03820 24.39536 11657 ft 309 kts 298°
2026-05-07 18:53 38.04865 24.37174 10932 ft 306 kts 298°
2026-05-07 18:53 38.05892 24.34827 10213 ft 302 kts 297°
2026-05-07 18:53 38.06900 24.32521 9761 ft 291 kts 297°
2026-05-07 18:54 38.07859 24.30328 9343 ft 280 kts 297°
2026-05-07 18:54 38.08798 24.28186 8764 ft 276 kts 297°
2026-05-07 18:54 38.09729 24.26064 8175 ft 274 kts 297°
2026-05-07 18:54 38.10654 24.23955 7552 ft 273 kts 297°
2026-05-07 18:55 38.11600 24.21793 6561 ft 287 kts 297°
2026-05-07 18:55 38.12575 24.19559 5722 ft 290 kts 297°
2026-05-07 18:55 38.13548 24.17317 5024 ft 288 kts 295°
2026-05-07 18:55 38.14011 24.14954 4903 ft 267 kts 266°
2026-05-07 18:56 38.13554 24.12811 4815 ft 242 kts 239°
2026-05-07 18:56 38.12495 24.11297 4579 ft 227 kts 217°
2026-05-07 18:56 38.11266 24.10126 4306 ft 216 kts 216°
2026-05-07 18:56 38.10063 24.08979 4028 ft 216 kts 216°
2026-05-07 18:57 38.08866 24.07834 3748 ft 215 kts 216°
2026-05-07 18:57 38.07674 24.06694 3471 ft 214 kts 216°
2026-05-07 18:57 38.06487 24.05559 3200 ft 213 kts 216°
2026-05-07 18:57 38.05326 24.04449 2913 ft 204 kts 216°
2026-05-07 18:58 38.04226 24.03398 2680 ft 190 kts 216°
2026-05-07 18:58 38.03217 24.02434 2422 ft 173 kts 216°
2026-05-07 18:58 38.02305 24.01563 2198 ft 159 kts 215°
2026-05-07 18:58 38.01463 24.00759 2013 ft 142 kts 216°
2026-05-07 18:59 38.00698 24.00030 1821 ft 134 kts 215°
2026-05-07 18:59 37.99963 23.99329 1655 ft 131 kts 214°
2026-05-07 18:59 37.99248 23.98647 1471 ft 129 kts 216°
2026-05-07 18:59 37.98526 23.97959 1303 ft 130 kts 215°
2026-05-07 19:00 37.97809 23.97274 1123 ft 129 kts 215°
2026-05-07 19:00 37.97078 23.96585 900 ft 129 kts 217°
2026-05-07 19:00 37.96356 23.95889 776 ft 131 kts 218°
2026-05-07 19:00 37.95615 23.95194 575 ft 132 kts 218°
2026-05-07 19:01 37.94896 23.94510 402 ft 130 kts 220°
2026-05-07 19:01 37.94169 23.93820 306 ft 125 kts 218°
2026-05-07 19:01 37.93657 23.93326 292 ft 46 kts 217°
2026-05-07 19:01 37.93443 23.93167 292 ft 31 kts 197°
2026-05-07 19:02 37.93272 23.93149 297 ft 19 kts 143°
2026-05-07 19:02 37.93226 23.93302 300 ft 19 kts 95°
2026-05-07 19:02 37.93309 23.93412 300 ft 19 kts 41°
2026-05-07 19:02 37.93420 23.93524 301 ft 22 kts 33°
2026-05-07 19:03 37.93555 23.93647 302 ft 25 kts 40°
2026-05-07 19:03 37.93704 23.93790 302 ft 28 kts 35°
2026-05-07 19:03 37.93869 23.93948 301 ft 31 kts 38°
2026-05-07 19:03 37.94046 23.94121 304 ft 34 kts 37°
2026-05-07 19:04 37.94243 23.94302 302 ft 36 kts 35°
2026-05-07 19:04 37.94451 23.94497 302 ft 38 kts 37°
2026-05-07 19:04 37.94646 23.94686 302 ft 5 kts 60°
2026-05-07 19:04 37.94635 23.94711 301 ft 5 kts 122°
2026-05-07 19:05 37.94608 23.94759 301 ft 10 kts 126°
2026-05-07 19:05 37.94551 23.94852 302 ft 17 kts 128°
2026-05-07 19:05 37.94470 23.94986 302 ft 22 kts 126°
2026-05-07 19:05 37.94366 23.95164 303 ft 28 kts 127°
2026-05-07 19:06 37.94240 23.95372 301 ft 31 kts 128°
2026-05-07 19:06 37.94051 23.95518 302 ft 11 kts 214°
2026-05-07 19:06 37.93979 23.95451 300 ft 15 kts 217°
2026-05-07 19:07 37.93897 23.95354 299 ft 18 kts 244°
2026-05-07 19:07 37.93847 23.95202 301 ft 19 kts 229°
2026-05-07 19:07 37.93733 23.95087 302 ft 22 kts 218°
2026-05-07 19:07 37.93730 23.95004 301 ft 11 kts 306°
2026-05-07 19:08 37.93749 23.94970 302 ft 0 kts 307°